Theta_e
352 357 349 345 344 344 344 346 347 344 344 340 333 334 335 333 335 334 337 340 341 340 337 338 339 340 337 335 328 325 328 331 332 334 335 335 335 336 338 332 339 338 332
351 357 348 344 344 344 345 346 347 346 346 339 333 334 335 333 336 335 338 344 344 342 340 338 338 334 328 327 324 326 329 332 334 334 336 335 335 336 334 332 338 335 331
352 356 350 343 344 345 345 347 347 347 346 336 333 335 335 333 337 337 337 344 346 343 340 338 335 326 324 324 326 328 329 330 331 332 342 344 343 331 334 333 329 327 327
354 356 353 342 343 345 346 348 347 347 344 335 335 337 336 334 337 338 339 343 345 344 335 329 328 325 327 327 327 332 337 340 342 343 345 341 341 332 332 334 332 328 326
354 354 353 340 342 343 346 348 347 347 343 338 339 340 337 335 337 338 340 341 341 333 327 323 324 327 328 329 332 334 341 344 343 343 344 343 345 342 332 335 336 330 331
352 352 352 337 339 342 343 346 346 346 344 343 344 342 338 336 337 338 337 334 330 331 325 322 324 328 331 331 336 342 342 341 339 344 340 339 338 343 336 334 341 338 331
350 351 350 336 337 339 340 342 344 344 344 344 344 341 338 335 336 336 334 331 331 332 325 322 324 329 332 331 335 338 338 338 343 342 338 338 341 340 338 334 335 336 334
350 352 351 336 335 337 338 339 340 342 342 343 341 338 335 336 336 335 334 332 334 330 327 325 326 329 333 333 332 332 334 335 340 340 339 336 336 337 339 338 335 335 337
351 351 350 345 339 336 337 336 335 335 334 334 333 333 334 335 335 335 333 334 333 329 327 326 326 328 330 332 333 334 333 333 337 335 336 333 332 328 336 340 340 337 335
350 350 349 345 343 344 344 337 335 334 333 331 331 332 334 336 335 333 334 334 333 329 325 323 323 324 326 328 329 331 332 330 332 331 330 329 328 323 323 327 334 339 337
348 349 347 345 343 343 345 344 337 335 334 332 333 333 336 339 340 343 340 343 335 332 329 325 321 320 320 321 321 322 323 327 328 328 327 326 323 319 319 324 326 335 338
348 348 347 346 344 344 344 347 344 344 343 342 341 343 340 340 343 342 343 339 335 332 331 329 326 323 321 328 332 330 325 325 328 327 327 327 322 320 320 321 324 325 331
347 348 348 349 348 346 345 347 345 345 345 345 345 346 342 341 342 341 340 341 341 339 338 339 340 338 334 333 331 330 329 328 327 326 326 325 320 319 323 324 326 325 326
347 348 348 351 350 348 345 346 347 347 347 348 348 350 348 348 347 345 343 343 344 342 342 341 339 339 339 338 337 334 332 331 329 327 327 325 321 318 318 320 328 331 332
350 349 350 350 352 350 347 347 347 348 348 349 349 350 349 349 348 349 348 348 347 347 347 348 347 348 347 347 346 344 342 340 337 335 331 328 326 320 318 318 320 332 336
352 351 350 352 353 352 351 350 349 349 348 350 349 350 351 350 349 349 349 349 348 347 347 347 347 347 347 347 346 347 346 345 344 342 340 336 332 329 324 320 318 319 329
352 353 352 352 353 354 354 353 352 351 350 350 350 351 352 352 352 352 349 349 348 348 349 349 349 349 348 347 347 347 346 345 344 343 343 341 340 338 336 333 330 320 320
335 352 355 353 352 355 354 354 354 353 353 351 351 351 353 353 352 351 349 349 350 351 351 351 351 350 350 349 349 349 349 348 347 345 344 341 339 339 339 336 335 330 322
324 343 351 355 353 354 355 354 354 354 354 353 352 352 352 352 351 350 350 352 354 353 353 353 352 351 350 349 347 347 348 348 348 347 347 346 344 341 338 339 338 337 328
324 329 342 350 354 356 356 356 355 354 354 354 353 352 352 351 351 353 353 354 355 353 349 348 348 347 346 346 345 342 343 344 345 345 346 346 345 345 345 342 340 340 338
323 327 334 341 349 355 354 353 353 353 353 354 353 352 352 353 354 353 353 351 351 345 342 343 343 340 339 338 340 341 338 339 342 343 344 344 343 343 343 344 344 341 339
322 318 325 336 347 351 349 350 349 351 352 353 351 351 353 352 352 353 350 341 338 335 340 339 338 335 331 331 336 336 337 333 333 336 340 343 343 342 341 342 344 343 343
323 322 329 345 350 350 350 352 350 351 351 352 352 354 354 354 351 342 337 333 333 333 327 334 332 330 327 326 328 332 333 333 331 330 336 339 342 342 342 342 342 343 344
326 330 340 347 349 350 348 344 346 346 346 346 348 345 341 337 333 332 332 330 332 326 326 327 327 327 325 325 325 327 329 331 335 335 329 331 335 341 341 342 341 342 343
326 332 337 340 343 343 344 344 346 345 341 334 330 330 329 332 329 327 328 327 328 328 325 328 326 327 324 323 324 324 326 329 330 336 337 333 330 330 331 336 338 340 341
325 329 332 336 337 338 336 335 335 333 331 328 327 326 324 324 325 328 327 329 330 329 328 328 329 327 327 325 324 324 325 326 327 328 331 334 334 331 331 332 333 336 338
Wind_Speed
18 22 26 25 22 21 21 23 26 26 25 24 25 25 23 23 23 22 21 20 17 15 14 13 11 10 9 11 11 12 12 12 11 10 9 8 8 7 6 7 9 6 6
23 23 28 27 23 21 21 22 28 27 26 25 26 24 22 22 22 22 21 18 16 13 13 11 10 9 9 11 11 12 12 10 9 8 8 8 6 5 5 5 8 5 5
24 23 27 28 24 21 22 23 28 29 27 26 26 25 22 21 21 21 20 17 14 12 11 9 8 9 10 11 11 11 10 8 7 6 8 4 5 4 4 4 4 4 4
25 24 24 29 26 22 21 24 29 28 27 26 26 23 21 20 20 19 18 16 13 11 9 9 9 10 10 10 10 10 7 6 4 4 2 3 3 0 4 4 4 3 3
23 23 24 30 27 24 22 25 28 28 27 25 24 21 19 19 19 18 16 15 12 10 9 9 10 10 10 10 9 8 7 5 3 1 1 1 0 3 1 4 2 1 4
24 23 24 30 28 25 24 25 26 27 25 24 22 20 19 18 18 18 16 14 12 10 10 11 11 11 10 9 9 8 7 5 2 3 2 4 3 6 4 2 6 5 2
24 23 24 29 28 27 26 25 25 25 24 23 21 19 19 19 18 17 15 14 11 10 9 10 11 10 10 8 8 8 6 6 5 5 5 4 4 8 6 4 4 5 4
23 22 23 28 27 26 26 25 25 24 24 22 20 19 18 18 18 16 14 12 10 9 8 8 9 9 9 8 8 8 8 9 8 8 7 6 7 5 7 6 7 7 8
21 22 22 23 25 25 25 24 24 23 22 21 19 19 18 18 17 15 13 11 8 7 7 8 8 9 9 9 9 9 10 11 10 10 9 8 10 7 6 10 10 10 9
22 21 21 22 22 21 21 24 23 21 20 19 18 18 17 17 16 14 13 11 10 9 9 9 9 9 10 10 11 12 12 12 11 12 10 10 14 12 10 11 14 13 12
21 21 21 22 22 21 20 21 22 20 19 18 16 17 16 13 14 13 12 14 12 11 10 10 10 10 11 11 12 13 13 11 12 11 11 14 15 13 13 13 13 14 15
21 21 21 21 21 21 20 19 20 18 16 16 15 15 14 14 13 13 13 15 14 12 12 11 12 12 12 10 11 10 11 12 13 13 14 17 17 14 15 15 15 16 15
20 20 20 20 21 21 19 19 20 19 18 17 17 16 15 14 13 14 12 11 12 12 11 11 11 11 12 11 11 12 12 13 14 15 15 21 20 17 16 17 18 18 18
17 19 20 21 21 21 19 20 20 20 19 18 18 18 16 15 14 13 13 12 11 11 10 11 11 11 12 13 14 14 15 16 16 17 18 22 22 19 20 21 20 20 19
15 18 20 21 22 22 21 20 20 19 19 18 18 20 19 17 15 15 14 13 12 11 11 11 12 12 13 14 15 16 17 17 18 19 20 21 26 23 23 23 22 22 22
14 17 19 21 22 23 24 21 21 19 19 18 18 18 20 18 16 15 15 14 14 13 13 14 14 15 16 17 18 19 19 20 20 21 21 21 24 27 26 27 26 25 25
19 17 20 21 22 23 23 23 21 20 20 19 19 18 18 19 17 16 15 14 13 12 13 14 15 16 17 17 19 19 20 21 23 23 24 23 23 25 26 27 26 27 27
16 20 20 21 22 24 23 21 20 19 19 20 19 18 19 19 18 14 14 13 12 12 12 14 14 15 16 17 19 19 20 20 21 22 23 24 25 25 25 26 26 25 26
15 17 17 20 21 22 21 20 19 18 19 19 18 18 18 19 17 15 13 12 12 13 13 13 14 14 16 18 20 21 22 22 23 23 25 25 26 27 27 27 27 27 28
15 14 17 18 19 19 18 19 18 19 20 19 19 18 17 17 16 16 14 13 11 12 12 12 12 14 15 19 21 24 24 25 26 26 27 28 28 28 27 27 26 25 27
15 15 16 15 17 18 19 19 19 19 18 19 18 16 15 15 16 15 14 13 13 13 12 11 12 14 16 17 18 22 26 26 27 27 27 28 29 28 27 27 26 26 25
20 22 22 19 15 16 16 16 15 16 16 15 15 15 16 15 15 15 14 12 11 11 10 11 11 13 16 15 16 20 13 21 24 26 25 23 25 25 25 24 24 25 25
19 20 22 18 15 17 13 13 9 10 9 12 13 13 13 14 14 13 13 12 11 12 12 10 11 11 16 16 16 18 11 13 15 25 20 20 19 20 22 22 23 23 23
15 13 14 13 14 13 14 12 13 13 11 11 12 12 12 13 13 14 13 12 12 12 11 11 10 12 13 16 17 19 22 24 14 15 26 26 22 19 24 23 23 23 23
10 12 12 12 13 13 13 11 11 10 8 8 9 10 12 12 13 13 14 15 15 14 13 13 12 13 13 16 17 18 21 21 23 14 15 18 29 29 28 24 23 25 25
7 8 8 11 11 10 10 8 4 3 3 4 6 7 10 12 13 16 17 17 17 16 16 16 16 16 16 16 17 17 19 18 17 17 14 13 16 27 27 26 27 23 25
Wind_Direction
161 164 169 173 178 179 181 182 180 175 170 163 160 159 158 156 151 148 146 143 143 145 146 143 144 143 136 135 131 125 118 114 107 99 101 102 102 98 101 98 86 90 103
156 160 168 173 177 179 181 181 179 176 171 166 163 163 162 159 156 152 152 148 148 147 150 148 146 145 141 139 136 129 128 121 111 103 92 74 94 106 110 103 111 114 102
155 159 165 172 175 179 180 179 175 174 171 170 168 167 164 161 160 157 157 155 154 155 156 157 155 149 145 144 140 136 135 130 116 102 90 88 108 102 109 96 102 105 112
154 158 164 172 176 178 179 176 174 173 174 173 171 169 165 164 164 163 162 163 164 166 168 169 166 157 151 151 150 148 144 140 131 96 100 95 105 350 136 130 114 121 133
155 158 165 171 176 177 177 176 176 176 176 176 174 172 170 168 169 168 168 168 172 177 177 175 172 167 162 161 164 169 170 171 179 145 9 27 12 254 235 172 129 123 132
156 162 173 173 177 180 177 180 179 180 181 178 178 177 177 174 174 174 175 175 176 182 183 181 180 179 178 179 181 183 190 201 215 268 311 304 281 256 256 218 185 206 236
159 162 169 175 178 180 182 179 182 184 184 182 183 183 183 180 178 181 183 182 184 188 192 192 192 192 194 197 200 207 221 239 262 286 296 300 311 275 247 247 249 244 244
159 161 168 176 180 180 182 183 181 183 184 187 188 190 187 184 183 187 188 191 193 197 203 206 207 209 214 221 229 239 251 259 275 279 285 288 283 278 238 249 259 264 259
162 163 167 172 180 182 183 184 184 184 186 189 190 190 188 187 187 192 196 200 204 209 213 219 222 225 230 236 244 249 257 263 271 277 278 278 269 279 261 253 256 260 262
167 168 169 172 176 180 185 187 189 188 188 187 186 188 188 190 194 198 201 208 212 215 219 223 228 234 239 243 247 253 259 267 269 265 269 266 265 271 272 268 260 257 259
173 173 175 175 178 180 183 189 191 193 190 187 186 189 188 189 202 210 210 221 225 224 227 231 236 239 245 251 260 260 262 263 260 263 262 257 268 274 272 265 270 259 258
178 179 180 181 181 183 185 187 186 191 188 186 189 192 189 200 206 210 219 232 234 236 239 243 246 248 254 249 251 268 252 251 258 263 263 262 270 269 270 262 262 263 258
184 184 184 185 187 189 187 187 191 193 191 196 195 195 197 206 211 214 220 232 233 249 243 253 253 255 249 251 254 255 259 260 263 264 263 264 269 269 270 267 262 259 262
191 192 191 190 191 193 192 195 198 197 196 199 200 201 200 206 212 215 220 224 225 230 237 240 248 251 252 254 260 261 262 264 266 269 270 271 274 273 273 272 261 263 263
200 199 198 197 196 196 198 201 204 205 202 204 204 207 206 212 217 221 225 228 234 236 240 247 252 255 259 261 262 261 261 261 261 265 268 270 275 272 268 265 264 261 257
220 211 206 204 202 200 202 203 205 207 207 208 211 213 212 216 219 224 230 233 237 241 247 252 256 260 263 265 265 265 266 266 265 263 264 267 272 276 273 269 267 262 262
247 224 212 210 208 206 207 208 209 211 210 212 214 216 218 219 224 225 234 235 235 240 244 250 254 258 261 264 266 266 267 267 265 264 263 264 267 270 276 273 268 263 260
261 233 218 212 210 210 210 210 213 216 214 216 217 216 219 219 219 226 229 234 236 238 244 252 255 259 262 266 269 268 266 265 264 262 263 263 262 262 263 267 270 262 255
269 248 229 216 214 212 213 214 216 217 218 219 219 216 215 218 217 215 224 229 227 234 241 251 258 265 273 273 274 271 269 270 270 268 265 262 260 259 258 260 261 262 257
263 238 230 223 219 213 211 212 217 219 220 219 218 217 214 213 214 216 226 230 226 241 246 247 257 267 270 276 282 279 278 274 269 267 265 264 261 259 257 256 255 255 259
256 246 230 216 213 203 203 207 213 217 218 217 216 213 209 209 213 216 223 228 233 242 249 255 260 264 274 278 288 279 273 265 262 263 266 266 262 259 257 255 253 254 255
257 249 237 227 207 209 208 209 214 213 209 209 210 212 214 214 216 218 224 224 233 244 244 249 253 270 275 278 274 285 286 280 273 266 261 263 269 269 263 257 254 253 252
260 243 229 212 197 199 199 192 194 188 188 193 200 206 211 210 206 207 217 227 227 233 246 238 251 268 282 283 275 280 286 281 298 293 277 271 263 270 273 267 263 259 255
254 234 214 197 190 189 185 194 200 204 204 207 198 193 185 194 204 213 218 226 230 240 244 243 256 262 272 282 283 273 273 282 287 289 281 277 270 262 267 271 272 264 259
216 199 191 184 181 176 176 192 201 224 203 185 185 186 197 208 214 225 229 230 231 233 239 242 249 255 268 271 280 285 283 274 271 268 281 282 278 276 270 264 268 274 269
190 180 164 155 145 145 147 148 160 170 206 214 213 224 228 231 235 237 236 235 236 238 241 242 247 251 255 263 269 276 278 280 283 282 283 280 277 281 280 278 277 271 273